This is the latest recevied weather packets stored in our database for station/object KC3ROS. If no packets are shown the sender has not sent any weather packets the latest 10 day(s).
| Time | Temp. | Humidity | Pressure | Rain* | Wind** | Luminosity | Snow |
|---|---|---|---|---|---|---|---|
| 1777989190 | 19.44° C | 64% | 1007.2 hPa | 0 mm | - | 423 W/m² | - |
| 1777988887 | 19.44° C | 62% | 1007 hPa | 0 mm | - | 271 W/m² | - |
| 1777988584 | 19.44° C | 63% | 1007.2 hPa | 0 mm | - | 323 W/m² | - |
| 1777988280 | 19.44° C | 64% | 1007.6 hPa | 0 mm | - | 235 W/m² | - |
| 1777987977 | 18.89° C | 67% | 1007.2 hPa | 0 mm | - | 236 W/m² | - |
| 1777987673 | 18.89° C | 64% | 1007.3 hPa | 0 mm | - | 198 W/m² | - |
| 1777987370 | 19.44° C | 64% | 1007.2 hPa | 0 mm | - | 185 W/m² | - |
| 1777987068 | 19.44° C | 62% | 1007.2 hPa | 0 mm | - | 247 W/m² | - |
| 1777986765 | 19.44° C | 65% | 1007.4 hPa | 0 mm | - | 387 W/m² | - |
| 1777986462 | 19.44° C | 64% | 1007.3 hPa | 0 mm | - | 399 W/m² | - |
| 1777986161 | 19.44° C | 64% | 1007.1 hPa | 0 mm | - | 415 W/m² | - |
| 1777985857 | 18.89° C | 63% | 1007.4 hPa | 0 mm | - | 469 W/m² | - |
| 1777985554 | 18.89° C | 66% | 1007.3 hPa | 0 mm | - | 238 W/m² | - |
| 1777985251 | 18.89° C | 65% | 1007.3 hPa | 0 mm | - | 259 W/m² | - |
| 1777984948 | 18.89° C | 64% | 1007.3 hPa | 0 mm | - | 412 W/m² | - |
| 1777984643 | 18.33° C | 67% | 1007.1 hPa | 0 mm | - | 339 W/m² | - |
| 1777984341 | 18.33° C | 66% | 1007.2 hPa | 0 mm | - | 263 W/m² | - |
| 1777984037 | 17.78° C | 67% | 1007.4 hPa | 0 mm | - | 263 W/m² | - |
| 1777983734 | 17.78° C | 69% | 1007.4 hPa | 0 mm | - | 258 W/m² | - |
| 1777983431 | 17.78° C | 69% | 1007.4 hPa | 0 mm | - | 220 W/m² | - |
| 1777983127 | 17.22° C | 69% | 1007.4 hPa | 0 mm | - | 190 W/m² | - |
| 1777982824 | 16.67° C | 72% | 1007.4 hPa | 0 mm | - | 193 W/m² | - |
| 1777982519 | 17.22° C | 71% | 1007.3 hPa | 0 mm | - | 48 W/m² | - |
| 1777982213 | 17.22° C | 70% | 1007.1 hPa | 0 mm | - | 31 W/m² | - |
| 1777981911 | 17.22° C | 70% | 1007 hPa | 0 mm | - | 47 W/m² | - |
* Rain latest hour (hover to see other rain measurements)
** Current wind speed in m/s (hover to see current wind gust speed)